Wind_Speed
4 4 4 4 3 3 2 2 2 2 2 1 1 1 1 0 0 1 1 1 1 1 1 2 2 2 2 2 3 4 4 4 4 3 3 4 4 5 5 5 5 6 6 6 7 7 7 7 8
3 3 4 4 3 3 2 2 1 1 1 0 1 1 1 1 1 1 1 1 2 2 2 2 3 3 3 3 4 4 4 4 4 4 4 5 5 6 6 6 6 7 6 6 7 7 8 8 8
1 2 3 4 4 3 2 2 1 1 0 1 1 1 2 2 2 2 2 2 3 3 3 3 3 3 4 3 4 4 4 4 4 5 6 6 6 6 7 7 7 7 7 7 7 7 7 7 7
2 3 4 5 5 4 3 2 3 2 1 2 2 2 3 3 3 3 3 3 4 4 4 4 4 4 4 4 4 4 5 5 5 6 7 7 7 7 7 7 8 8 8 8 8 8 7 7 7
3 3 5 5 4 4 3 3 3 3 3 3 4 4 3 4 4 4 4 4 5 5 5 5 5 5 5 5 5 6 6 6 7 7 8 8 8 8 8 8 8 8 8 8 8 8 7 7 7
4 4 6 5 5 4 4 4 3 4 4 5 5 5 5 4 4 4 4 5 5 5 5 4 5 6 6 7 6 6 6 7 8 8 8 8 8 9 9 9 9 9 9 9 9 9 8 8 8
4 5 5 5 5 4 4 4 4 4 5 5 6 6 5 5 5 5 5 5 5 5 5 5 5 6 7 7 7 7 7 7 8 8 9 9 9 9 10 9 9 10 10 10 10 10 10 10 10
5 5 6 6 5 5 3 4 5 5 5 5 6 6 6 6 6 6 5 5 5 6 6 6 5 6 7 7 7 7 7 8 8 9 9 9 10 10 10 10 10 11 11 11 11 11 11 11 10
5 5 5 6 6 5 4 4 5 5 5 5 5 6 6 6 6 6 6 5 5 5 5 6 6 7 7 8 8 8 8 9 9 10 10 10 11 11 11 11 12 12 12 11 11 11 12 11 11
5 5 6 5 5 5 4 5 5 4 4 5 5 6 5 5 5 6 6 6 6 6 6 6 6 7 7 8 8 8 8 9 10 10 11 11 11 11 12 12 12 12 12 12 11 11 11 11 11
6 6 6 5 5 4 5 5 5 5 4 5 5 5 6 5 5 5 6 6 6 6 7 7 7 7 8 9 9 9 9 9 10 10 10 11 11 12 12 13 13 12 12 11 11 11 11 11 11
6 6 6 5 4 5 5 5 5 5 5 5 5 6 6 6 6 6 6 6 7 7 8 8 8 8 9 9 10 10 10 10 10 11 11 11 12 12 12 12 12 13 12 12 11 11 11 11 11
7 6 6 5 5 5 5 5 5 5 5 5 5 6 6 6 7 7 6 7 8 8 8 8 9 9 10 10 10 10 10 10 10 11 11 12 13 13 12 12 12 13 13 12 12 12 12 12 12
6 6 6 5 5 5 5 5 5 6 6 6 6 6 6 6 7 7 7 8 8 8 8 9 9 10 10 11 10 10 11 11 10 11 11 12 12 12 13 13 13 13 13 13 13 12 12 12 12
6 7 6 5 5 5 5 5 6 6 6 6 6 6 6 6 7 7 7 8 8 9 9 9 9 10 10 11 11 11 11 11 11 11 11 12 12 12 12 13 13 12 12 13 13 12 12 12 11
7 7 6 5 5 4 5 5 6 6 6 6 7 7 7 7 8 8 8 9 9 9 10 10 10 10 11 11 11 11 11 11 11 11 11 12 12 12 12 12 12 12 11 12 12 12 11 11 10
7 6 6 5 5 4 5 5 6 6 6 6 7 8 8 8 8 9 9 9 9 9 9 10 10 10 11 11 11 11 11 11 12 11 11 11 12 12 12 12 11 11 11 10 10 11 10 10 10
7 6 6 6 5 5 5 5 5 5 5 6 7 7 8 8 8 8 9 9 10 9 9 10 10 11 11 11 12 12 12 12 12 12 11 12 12 12 12 12 11 11 10 10 10 10 9 10 10
7 7 7 6 6 6 6 6 6 5 5 6 7 7 8 8 9 9 9 9 10 10 10 10 11 11 12 12 12 12 12 12 12 12 12 12 12 12 12 12 12 11 10 10 10 9 10 10 9
8 8 7 7 6 6 6 7 7 7 6 7 8 8 8 9 9 9 10 10 10 10 10 10 11 12 12 13 12 12 12 12 13 12 12 12 12 12 12 12 12 11 11 11 10 10 11 10 10
8 8 8 8 7 7 7 7 8 8 8 8 9 9 9 10 10 10 10 11 11 11 11 11 11 12 13 13 13 12 12 13 13 13 12 12 12 12 12 11 11 11 12 12 11 11 11 10 10
9 8 8 9 9 9 9 8 8 8 8 9 10 10 10 11 11 11 11 11 11 12 12 13 13 13 13 13 13 13 13 13 13 12 12 12 11 11 11 11 11 12 12 12 11 12 12 11 11
9 9 9 10 10 10 10 9 7 9 9 10 10 10 11 11 12 13 12 13 13 13 13 14 14 14 13 13 13 13 13 13 13 12 12 12 11 11 11 12 12 12 12 11 11 11 12 12 11
9 10 10 10 11 11 12 11 9 10 10 11 11 11 11 12 13 13 13 14 14 14 14 14 14 14 14 14 14 13 14 14 13 13 13 13 12 12 12 13 13 12 11 11 11 12 12 12 12
11 11 12 12 13 13 14 14 12 12 12 12 12 12 12 12 13 14 14 14 15 15 16 16 16 16 16 16 15 14 14 14 14 14 14 13 13 13 13 13 13 12 12 11 11 12 12 12 12
12 12 14 15 15 14 15 15 14 14 14 13 13 13 13 13 14 15 15 15 15 16 16 17 17 17 16 17 17 16 16 15 15 15 15 14 14 14 14 13 12 12 12 12 12 12 12 12 12
13 13 14 15 16 16 17 16 15 15 14 15 15 15 15 14 15 15 16 17 17 17 17 18 18 18 18 17 18 17 17 17 16 16 16 15 14 14 14 13 13 12 13 13 12 12 12 12 12
13 14 15 16 17 18 17 17 16 15 15 16 16 16 16 16 16 17 18 18 19 19 19 19 18 19 19 19 19 19 18 18 17 17 16 15 15 15 15 14 13 13 14 13 13 13 13 13 13
14 15 16 16 17 18 19 18 17 17 17 17 17 17 18 17 17 18 19 19 19 20 20 19 19 20 20 20 19 19 20 19 18 18 17 16 16 16 16 16 15 15 15 15 14 14 14 14 14
16 16 17 17 18 19 20 18 18 18 18 18 18 18 18 19 19 19 19 19 19 20 20 20 20 20 20 20 20 20 20 20 19 19 18 17 17 17 17 17 17 16 16 16 16 15 15 16 16
Wind_Direction
158 163 167 174 185 198 199 174 141 132 122 110 59 19 351 293 315 307 316 325 2 25 18 3 349 343 326 301 303 299 288 286 288 295 301 296 292 294 293 295 301 298 296 294 294 294 293 297 297
167 182 194 200 203 206 194 196 197 174 184 329 325 309 315 313 304 280 275 298 315 315 309 313 318 317 310 304 303 296 288 282 282 287 295 300 300 295 293 293 297 299 298 295 298 295 295 297 299
203 214 217 219 223 216 212 222 214 209 257 301 307 288 280 294 297 285 280 295 304 304 306 303 297 305 304 301 298 292 287 283 283 289 298 301 298 293 294 296 297 299 300 298 300 302 301 299 300
259 249 234 230 234 235 230 230 243 254 267 294 296 291 280 285 288 290 288 296 303 307 302 296 293 295 299 296 293 296 294 289 290 292 296 298 297 297 294 292 295 296 299 299 301 303 303 305 304
273 263 246 243 244 242 239 243 249 262 276 281 288 288 284 282 284 288 291 293 299 302 296 286 292 289 287 289 294 293 294 290 291 293 292 292 293 295 294 293 293 294 295 297 299 300 299 304 303
261 266 256 252 252 254 255 260 264 265 279 280 283 280 283 281 280 284 288 293 294 291 289 290 294 295 288 288 293 293 289 289 289 291 291 292 291 292 294 294 292 291 291 293 294 294 295 296 297
269 270 265 264 263 265 264 267 269 275 273 278 281 280 280 281 289 290 289 289 294 291 286 285 291 294 292 288 288 291 290 290 291 292 291 291 289 290 293 293 292 291 290 291 292 292 292 293 293
276 272 270 271 268 264 275 280 274 281 286 283 285 285 285 282 286 287 284 284 294 295 291 286 281 286 289 288 285 287 289 290 292 292 293 292 289 289 290 290 290 289 289 289 291 292 290 290 291
266 270 276 280 275 266 275 286 283 279 287 285 285 291 293 286 282 282 284 286 289 291 292 290 282 286 287 287 287 285 283 285 288 292 293 293 294 291 290 289 289 290 290 290 291 291 289 288 289
262 273 278 282 286 283 286 289 289 287 287 282 283 286 288 289 288 291 292 291 292 290 290 292 290 285 287 288 285 287 285 283 283 288 292 293 295 295 293 293 291 290 290 290 290 290 288 288 289
261 269 278 283 288 291 292 292 293 297 294 286 283 282 284 289 289 294 296 293 293 289 289 294 294 295 293 289 286 288 288 289 289 287 291 294 294 294 294 295 293 290 291 291 289 288 287 288 290
263 269 276 283 287 289 289 290 291 292 292 287 282 283 289 289 286 286 290 293 297 292 287 287 288 291 296 296 293 289 290 292 293 294 296 295 294 294 294 294 293 290 289 290 289 288 287 285 283
255 267 277 280 282 285 292 293 293 291 291 293 290 286 289 284 283 286 291 294 295 295 292 293 294 294 295 297 297 297 295 297 297 297 298 297 294 292 292 291 290 289 287 290 291 290 286 282 279
254 263 271 274 280 284 287 293 294 295 299 298 295 291 289 285 284 288 291 294 295 294 295 297 301 301 300 300 296 295 298 299 300 301 302 300 297 294 291 290 288 288 287 287 289 289 288 285 281
256 263 269 273 273 279 286 292 293 297 301 303 300 299 295 292 292 294 297 295 293 293 293 294 300 301 301 301 300 301 298 297 301 305 305 303 300 298 297 295 291 289 287 286 286 287 286 283 282
257 259 266 272 267 271 284 294 293 296 302 306 304 300 297 294 295 296 298 298 298 297 295 294 296 296 296 297 297 298 300 303 304 304 305 304 302 299 298 297 294 291 289 289 288 289 285 282 282
259 261 262 266 268 269 280 290 291 297 306 308 305 302 299 297 296 296 298 299 300 300 297 295 296 296 295 297 297 297 299 303 305 305 305 306 305 300 296 296 293 291 291 293 292 289 285 281 279
264 262 261 265 270 273 277 288 293 294 304 309 307 304 302 299 298 299 300 300 301 303 301 298 297 296 296 297 298 299 300 302 304 303 302 304 305 304 299 294 291 290 290 290 290 289 286 285 283
259 262 262 263 270 277 283 290 296 301 300 304 308 305 303 301 300 301 300 300 301 303 301 297 298 297 296 297 298 299 299 301 301 300 300 300 301 302 301 296 289 287 287 287 286 287 286 287 288
261 264 265 265 267 272 279 285 290 297 301 302 302 305 303 300 299 300 301 300 299 299 298 294 298 298 298 297 296 297 298 300 298 297 297 298 297 297 297 295 291 286 284 283 283 285 287 287 289
263 267 267 267 269 273 279 284 291 297 301 303 301 299 298 298 298 299 299 297 297 297 297 295 295 297 297 295 295 296 297 298 298 295 295 297 295 294 295 296 294 288 285 282 280 281 284 286 288
263 265 262 263 267 275 285 290 291 297 301 299 299 296 295 296 297 298 298 298 297 294 294 293 291 294 295 295 295 296 298 298 298 294 293 293 292 292 294 297 296 289 284 282 280 279 280 283 283
264 266 265 264 269 276 283 288 292 294 298 301 300 297 296 296 294 296 297 297 296 295 293 291 290 292 294 295 292 294 295 297 296 294 295 293 290 287 288 291 294 290 285 281 280 276 279 281 280
264 265 267 268 271 277 283 286 290 292 297 301 300 297 294 293 293 293 294 294 295 295 294 294 292 292 292 292 290 290 292 293 293 293 292 292 290 287 284 287 291 290 286 281 280 277 278 279 278
262 265 267 270 272 276 279 282 290 292 297 297 296 294 292 290 292 293 293 292 292 293 292 290 289 289 290 291 291 290 290 289 288 290 291 290 288 285 282 285 288 287 284 281 279 279 278 276 276
262 265 270 275 276 274 275 281 288 290 293 294 294 294 293 290 291 292 293 291 289 288 289 287 286 287 287 288 288 288 287 286 287 289 289 290 288 285 282 283 286 284 284 281 278 278 278 277 276
264 267 272 275 276 275 278 282 285 288 289 291 294 293 293 291 290 291 292 292 290 288 287 286 286 285 284 283 284 284 283 283 284 286 286 287 287 284 281 281 282 282 283 283 281 278 279 278 279
265 269 271 274 278 279 283 285 290 290 293 295 295 294 292 290 289 288 290 290 289 287 286 284 283 283 283 283 283 282 282 281 281 282 283 283 283 282 280 279 282 282 284 283 282 279 277 278 279
266 267 269 271 274 280 284 287 290 291 295 296 295 293 291 287 285 286 287 287 287 287 286 285 284 283 282 281 281 281 280 280 278 280 279 280 281 280 279 277 278 280 282 283 282 279 276 276 278
265 267 268 269 273 277 281 285 287 290 291 292 292 291 291 288 287 286 286 286 285 285 285 285 285 285 284 282 281 280 279 278 277 278 277 278 278 278 277 277 278 278 281 282 280 280 277 274 275
Height
5893 5893 5893 5894 5895 5894 5893 5894 5893 5893 5893 5893 5893 5893 5893 5893 5894 5896 5894 5892 5892 5892 5891 5890 5889 5889 5889 5889 5889 5888 5888 5887 5887 5887 5886 5886 5885 5884 5884 5883 5882 5881 5881 5880 5879 5878 5877 5876 5875
5892 5893 5894 5894 5894 5893 5894 5893 5893 5893 5893 5893 5893 5893 5893 5893 5893 5893 5892 5892 5892 5891 5891 5890 5890 5889 5889 5889 5888 5888 5887 5887 5887 5886 5886 5885 5884 5884 5883 5882 5881 5880 5879 5879 5878 5877 5876 5875 5873
5892 5893 5894 5893 5893 5893 5893 5893 5893 5892 5893 5893 5893 5893 5893 5893 5893 5892 5892 5892 5891 5891 5890 5890 5889 5889 5889 5888 5888 5887 5887 5887 5886 5886 5885 5884 5884 5883 5882 5881 5880 5879 5878 5877 5877 5876 5875 5874 5872
5892 5893 5893 5893 5892 5893 5893 5893 5892 5892 5893 5893 5893 5893 5892 5892 5892 5892 5891 5891 5891 5890 5890 5889 5889 5889 5888 5888 5887 5887 5886 5886 5885 5885 5884 5883 5882 5882 5881 5880 5879 5878 5877 5876 5875 5875 5874 5873 5871
5892 5892 5892 5892 5892 5892 5892 5892 5892 5892 5892 5892 5892 5892 5892 5892 5891 5891 5890 5890 5890 5889 5889 5888 5888 5888 5887 5887 5887 5886 5886 5885 5884 5884 5883 5882 5881 5880 5879 5879 5878 5877 5876 5875 5874 5873 5873 5872 5870
5892 5891 5891 5891 5891 5891 5891 5891 5891 5891 5891 5891 5891 5891 5891 5891 5890 5890 5889 5889 5889 5888 5888 5887 5887 5887 5886 5886 5885 5885 5884 5884 5883 5882 5881 5880 5880 5879 5878 5877 5876 5875 5874 5873 5872 5872 5871 5870 5869
5891 5891 5890 5890 5890 5890 5891 5890 5890 5890 5890 5890 5890 5890 5889 5889 5889 5889 5888 5888 5887 5886 5886 5886 5886 5885 5885 5884 5884 5883 5883 5882 5881 5880 5880 5879 5878 5877 5876 5875 5874 5873 5873 5872 5871 5870 5869 5869 5868
5890 5890 5889 5889 5889 5890 5889 5889 5889 5889 5889 5889 5889 5888 5888 5888 5888 5887 5887 5887 5886 5885 5885 5885 5884 5884 5883 5883 5882 5882 5881 5881 5880 5879 5878 5877 5876 5875 5874 5873 5872 5871 5870 5870 5869 5868 5867 5867 5866
5889 5890 5888 5889 5889 5889 5888 5888 5888 5888 5888 5888 5887 5887 5887 5887 5886 5886 5886 5886 5885 5884 5884 5883 5883 5882 5882 5881 5880 5880 5879 5879 5878 5877 5876 5875 5874 5873 5872 5871 5870 5869 5868 5867 5867 5866 5865 5864 5864
5888 5888 5888 5888 5887 5887 5887 5887 5887 5887 5887 5886 5886 5886 5885 5885 5885 5884 5884 5884 5884 5883 5882 5882 5881 5880 5880 5879 5878 5878 5877 5876 5876 5875 5874 5873 5872 5871 5870 5869 5868 5867 5866 5865 5864 5863 5863 5862 5861
5887 5887 5887 5886 5886 5886 5885 5885 5885 5885 5886 5885 5885 5884 5884 5884 5883 5883 5882 5882 5882 5882 5881 5880 5879 5879 5878 5877 5876 5876 5875 5874 5873 5872 5872 5871 5870 5868 5867 5866 5865 5864 5863 5862 5862 5861 5860 5860 5859
5886 5885 5885 5885 5885 5885 5884 5884 5884 5884 5884 5884 5883 5883 5882 5882 5882 5881 5881 5880 5880 5880 5879 5879 5878 5877 5876 5875 5874 5874 5873 5872 5871 5870 5869 5868 5867 5866 5865 5864 5862 5862 5861 5860 5859 5858 5858 5857 5856
5884 5884 5884 5884 5884 5883 5883 5883 5882 5882 5882 5882 5881 5881 5881 5881 5880 5880 5879 5879 5878 5878 5877 5876 5876 5875 5874 5873 5872 5872 5871 5870 5869 5867 5866 5865 5864 5863 5862 5861 5860 5859 5858 5857 5856 5855 5855 5854 5854
5883 5883 5883 5882 5882 5882 5882 5882 5881 5881 5880 5880 5880 5880 5879 5879 5878 5878 5877 5877 5876 5875 5875 5874 5873 5872 5871 5871 5870 5869 5868 5867 5866 5865 5863 5862 5861 5860 5859 5858 5857 5856 5855 5854 5853 5853 5852 5851 5851
5881 5882 5882 5881 5881 5881 5881 5881 5880 5879 5879 5878 5878 5878 5877 5877 5877 5876 5875 5875 5874 5873 5873 5872 5871 5870 5869 5868 5867 5866 5866 5864 5863 5862 5861 5860 5858 5857 5856 5855 5854 5853 5852 5851 5850 5850 5849 5848 5848
5880 5880 5880 5880 5880 5879 5881 5880 5879 5878 5877 5877 5876 5876 5875 5875 5874 5874 5873 5873 5872 5871 5870 5869 5868 5868 5867 5866 5865 5864 5863 5862 5860 5859 5858 5857 5856 5855 5853 5852 5851 5850 5849 5848 5847 5847 5846 5846 5845
5879 5879 5878 5879 5878 5878 5878 5878 5877 5876 5876 5875 5875 5874 5873 5873 5872 5872 5871 5870 5869 5868 5867 5867 5866 5865 5864 5863 5862 5861 5860 5859 5858 5857 5855 5854 5853 5852 5850 5849 5848 5847 5846 5846 5845 5844 5843 5843 5842
5877 5877 5877 5877 5877 5877 5876 5876 5876 5875 5874 5874 5873 5872 5871 5871 5870 5869 5869 5868 5867 5866 5865 5864 5863 5862 5862 5861 5860 5858 5857 5856 5855 5854 5852 5851 5850 5849 5847 5846 5845 5845 5844 5843 5842 5842 5841 5840 5840
5875 5875 5875 5875 5875 5875 5874 5874 5873 5873 5872 5872 5871 5870 5869 5869 5868 5867 5866 5866 5865 5864 5863 5862 5861 5860 5859 5858 5857 5855 5854 5853 5852 5851 5850 5848 5847 5846 5845 5843 5842 5842 5841 5840 5840 5839 5838 5838 5837
5873 5873 5873 5873 5873 5872 5872 5872 5871 5871 5870 5870 5869 5868 5867 5866 5865 5865 5864 5863 5862 5861 5860 5859 5858 5857 5856 5855 5854 5853 5851 5850 5849 5847 5846 5845 5844 5843 5842 5841 5840 5839 5838 5838 5837 5837 5836 5835 5834
5871 5871 5871 5871 5870 5870 5870 5870 5869 5869 5868 5868 5867 5866 5865 5864 5863 5862 5861 5860 5859 5858 5857 5856 5855 5854 5853 5852 5850 5849 5848 5846 5845 5844 5843 5842 5841 5840 5839 5838 5837 5836 5835 5835 5834 5834 5833 5833 5832
5868 5868 5868 5868 5868 5868 5868 5868 5867 5867 5866 5865 5864 5863 5862 5861 5860 5859 5858 5857 5856 5855 5854 5853 5852 5851 5849 5848 5847 5846 5844 5843 5842 5841 5840 5839 5838 5837 5836 5835 5834 5833 5832 5832 5831 5831 5831 5830 5829
5866 5866 5866 5865 5865 5865 5865 5865 5866 5864 5863 5863 5862 5861 5859 5858 5857 5856 5855 5854 5853 5852 5851 5850 5848 5847 5846 5845 5844 5843 5841 5840 5839 5838 5837 5836 5835 5834 5833 5832 5831 5830 5829 5829 5828 5828 5827 5827 5826
5863 5863 5863 5862 5862 5863 5862 5861 5862 5861 5860 5860 5859 5857 5856 5855 5854 5853 5851 5850 5849 5848 5847 5846 5845 5843 5842 5841 5840 5839 5838 5837 5836 5835 5834 5832 5831 5830 5830 5829 5828 5827 5826 5826 5825 5824 5824 5824 5823
5861 5861 5861 5860 5859 5859 5858 5857 5858 5857 5857 5856 5855 5853 5852 5851 5850 5849 5848 5846 5845 5844 5843 5842 5840 5839 5838 5837 5836 5835 5834 5833 5832 5831 5830 5829 5828 5827 5826 5825 5825 5824 5823 5822 5822 5821 5821 5820 5820
5857 5858 5858 5857 5856 5855 5854 5853 5854 5853 5852 5851 5850 5849 5848 5847 5846 5845 5843 5842 5841 5840 5839 5837 5836 5834 5834 5833 5832 5831 5830 5829 5828 5827 5826 5825 5824 5823 5823 5822 5821 5820 5820 5819 5818 5818 5817 5817 5816
5853 5853 5854 5853 5851 5850 5850 5850 5849 5849 5848 5847 5846 5845 5843 5842 5841 5840 5839 5838 5837 5835 5834 5832 5831 5829 5829 5828 5827 5826 5826 5825 5824 5823 5822 5821 5820 5819 5819 5818 5818 5817 5816 5815 5815 5814 5814 5813 5813
5850 5849 5849 5848 5847 5845 5845 5845 5845 5844 5843 5842 5840 5839 5838 5838 5836 5835 5834 5832 5831 5830 5828 5827 5826 5825 5824 5823 5823 5822 5821 5820 5819 5818 5817 5817 5816 5815 5815 5814 5814 5813 5812 5812 5811 5811 5810 5810 5809
5845 5845 5844 5843 5842 5841 5840 5842 5840 5839 5837 5836 5835 5834 5833 5832 5831 5829 5828 5827 5826 5824 5823 5822 5820 5820 5819 5818 5817 5817 5816 5815 5814 5813 5812 5812 5811 5811 5810 5810 5809 5809 5808 5808 5807 5806 5806 5806 5805
5840 5840 5839 5839 5838 5836 5835 5838 5835 5833 5832 5831 5830 5828 5827 5826 5825 5823 5822 5821 5820 5819 5817 5816 5815 5814 5813 5812 5812 5811 5810 5809 5808 5808 5807 5807 5806 5806 5806 5805 5805 5804 5804 5803 5803 5802 5801 5801 5801